Location: Ingoldesthorpe
(52.8667°N, 0.5167°E)
Time: 18:19:36
(UTC+00:00)

GP-B - Pass Details

Date: 19 May 2025
Orbit: 619 x 624 km, 89.8° (Epoch: 23 June)

Event Time Altitude Azimuth Distance (km) Brightness Sun altitude
Rises 23:08:23 0° 6° (N) 2,920 8.0 -16.5°
Reaches altitude 10° 23:10:45 10° 15° (NNE) 2,007 6.7 -16.5°
Maximum altitude 23:14:51 37° 83° (E) 980 4.0 -16.6°
Enters shadow 23:16:48 24° 132° (SE) 1,283 4.2 -16.7°
